GW3839 Weather Reports


time (UTC)temp
F
wind
direction
speed
knots
gust
knots
rain 1hr
in
rain 24hr
in
rain mn
in
humidity
%
barometer
mb
20260505163351 51 51 1.7 2.6 0.00 0.72 0.72 80 1011.2
20260505162849 51 43 0.9 1.7 0.00 0.72 0.72 81 1011.2
20260505162345 51 38 1.7 1.7 0.00 0.72 0.72 80 1011.0
20260505161842 51 26 0.9 1.7 0.00 0.72 0.72 79 1011.0
20260505161339 51 16 4.3 7.0 0.00 0.72 0.72 80 1011.1
20260505160836 51 31 1.7 2.6 0.00 0.72 0.72 80 1011.3
20260505160335 51 52 3.5 3.5 0.00 0.72 0.72 82 1011.4
20260505153314 50 45 0.9 1.7 0.00 0.72 0.72 83 1011.3
20260505152811 49 53 1.7 2.6 0.00 0.72 0.72 84 1011.4
20260505152308 48 53 4.3 7.0 0.00 0.72 0.72 83 1011.3
20260505151802 49 38 1.7 2.6 0.00 0.72 0.72 83 1011.2
20260505151300 48 48 3.5 3.5 0.00 0.72 0.72 84 1011.3
20260505150756 48 45 4.3 7.0 0.00 0.72 0.72 83 1011.2
20260505150253 48 51 1.7 3.5 0.00 0.72 0.72 84 1011.1
20260505140218 47 24 3.5 5.2 0.00 0.71 0.71 85 1009.8
20260505130141 49 330 1.7 2.6 0.12 0.68 0.68 87 1011.4
20260505124625 51 336 1.7 2.6 0.14 0.65 0.65 86 1012.2
20260505124122 50 323 3.5 3.5 0.00 0.63 0.63 89 1011.3
20260505123618 51 293 0.9 0.9 0.05 0.63 0.63 89 1011.6
20260505123115 50 334 0.0 0.9 0.17 0.63 0.63 87 1011.4
20260505122611 51 342 2.6 2.6 0.19 0.62 0.62 85 1010.9
20260505122109 51 12 2.6 3.5 0.12 0.61 0.61 84 1010.6
20260505121604 51 331 0.9 0.9 0.00 0.59 0.59 83 1011.3
20260505121101 51 283 1.7 1.7 0.00 0.59 0.59 83 1011.3
20260505120552 51 331 0.9 1.7 0.00 0.59 0.59 86 1010.9
20260505120048 51 321 1.7 2.6 0.00 0.59 0.59 86 1010.5
20260505115548 50 334 1.7 1.7 0.00 0.59 0.59 87 1010.6
20260505115045 50 328 0.0 0.0 0.00 0.59 0.59 87 1010.6
20260505114542 50 323 0.9 0.9 0.00 0.59 0.59 88 1010.5
20260505114038 50 332 0.9 0.9 0.00 0.59 0.59 88 1010.2
20260505113530 50 44 0.0 0.0 0.00 0.59 0.59 90 1009.8
20260505113026 51 44 0.0 0.9 0.00 0.59 0.59 89 1009.6
20260505112522 51 44 0.9 0.9 0.00 0.59 0.59 88 1009.7
20260505112020 51 32 0.0 0.0 0.00 0.59 0.59 87 1009.7
20260505111514 51 38 2.6 3.5 0.00 0.59 0.59 86 1009.3
20260505111011 51 359 2.6 2.6 0.05 0.59 0.59 85 1009.3
20260505110508 51 34 0.9 1.7 0.12 0.59 0.59 87 1009.5
20260505101939 54 283 1.7 1.7 0.24 0.48 0.48 82 1009.5
20260505101433 55 318 7.0 8.7 0.19 0.47 0.47 79 1009.4
20260505100929 56 317 3.5 3.5 0.00 0.44 0.44 80 1009.8
20260505100426 56 265 5.2 7.8 0.00 0.44 0.44 83 1010.1
20260505095921 56 325 3.5 3.5 0.00 0.44 0.44 80 1008.9
20260505095419 56 326 3.5 3.5 0.00 0.44 0.44 81 1008.6
20260505094915 57 336 1.7 2.6 0.00 0.44 0.44 82 1008.6
20260505094412 57 342 1.7 1.7 0.00 0.44 0.44 84 1008.8
20260505093908 56 342 3.5 6.1 0.00 0.44 0.44 86 1008.5
20260505093405 57 327 0.0 0.9 0.00 0.44 0.44 91 1008.5
20260505092902 57 288 0.9 0.9 0.00 0.44 0.44 91 1008.4
20260505092400 57 252 0.9 0.9 0.00 0.44 0.44 91 1008.2
20260505091857 57 211 0.9 1.7 0.00 0.44 0.44 90 1007.7
20260505091355 57 299 1.7 2.6 0.00 0.44 0.44 89 1007.6
20260505090853 57 331 0.0 0.9 0.00 0.44 0.44 89 1007.2
20260505090351 58 322 1.7 2.6 0.00 0.44 0.44 90 1007.1
20260505085848 58 306 4.3 5.2 0.00 0.44 0.44 92 1006.9
20260505085346 58 320 2.6 2.6 0.00 0.44 0.44 93 1006.3
20260505084843 58 331 3.5 5.2 0.00 0.44 0.44 92 1006.4
20260505084341 58 349 3.5 3.5 0.00 0.44 0.44 92 1006.1
20260505083838 58 4 3.5 5.2 0.00 0.44 0.44 92 1006.4
20260505083336 58 343 3.5 5.2 0.00 0.44 0.44 90 1006.4
20260505082832 58 353 1.7 2.6 0.00 0.44 0.44 89 1006.4
20260505082328 59 274 3.5 5.2 0.00 0.44 0.44 87 1006.3
20260505081825 58 320 1.7 2.6 0.00 0.44 0.44 91 1006.4
20260505081322 57 336 6.1 7.0 0.00 0.44 0.44 94 1006.4
20260505080819 58 306 2.6 2.6 0.00 0.44 0.44 97 1006.6
20260505080315 58 295 0.9 1.7 0.00 0.44 0.44 97 1006.7
20260505075810 58 340 1.7 2.6 0.00 0.44 0.44 97 1006.9
20260505075307 58 324 1.7 1.7 0.00 0.44 0.44 97 1007.1
20260505074805 58 291 2.6 2.6 0.05 0.44 0.44 97 1007.2
20260505074302 59 333 0.9 1.7 0.12 0.44 0.44 98 1007.6
20260505073759 59 298 2.6 3.5 0.12 0.43 0.43 98 1007.5
20260505073257 59 229 4.3 6.1 0.17 0.42 0.42 97 1007.3
20260505072754 59 179 5.2 7.0 0.26 0.41 0.41 96 1007.2
20260505072250 59 202 7.0 11.3 0.26 0.39 0.39 96 1006.6
20260505071745 59 176 5.2 7.0 0.24 0.37 0.37 95 1006.8
20260505071242 59 243 3.5 5.2 0.24 0.35 0.35 94 1007.2
20260505070740 59 232 3.5 5.2 0.24 0.34 0.34 94 1007.8
20260505070236 60 285 5.2 7.8 0.17 0.31 0.31 95 1008.3
20260505065732 60 261 4.3 5.2 0.12 0.29 0.29 93 1008.2
20260505065229 60 242 5.2 6.1 0.07 0.28 0.28 92 1008.3
20260505064726 60 271 4.3 7.0 0.00 0.27 0.27 91 1008.1
20260505064223 60 228 6.1 7.8 0.00 0.27 0.27 91 1007.8
20260505063721 59 277 7.0 7.8 0.00 0.27 0.27 91 1007.2
20260505063216 58 281 4.3 6.1 0.00 0.27 0.27 92 1007.2
20260505062713 57 233 4.3 6.1 0.07 0.27 0.27 91 1006.7
20260505062206 57 211 2.6 2.6 0.07 0.27 0.27 91 1006.4
20260505061702 57 216 4.3 6.1 0.00 0.26 0.26 91 1006.3
20260505061200 56 186 1.7 2.6 0.00 0.26 0.26 91 1006.3
20260505060657 56 233 0.0 0.9 0.05 0.26 0.26 91 1006.2
20260505060154 57 274 1.7 2.6 0.28 0.26 0.26 90 1006.6
20260505055649 57 241 3.5 3.5 0.35 0.25 0.25 90 1006.7
20260505055146 57 273 0.9 2.6 0.50 0.21 0.21 89 1006.7
20260505054643 58 264 3.5 3.5 0.54 0.19 0.19 89 1006.9
20260505054141 59 202 1.7 2.6 0.47 0.13 0.13 88 1006.6
20260505053639 60 283 5.2 7.0 0.61 0.10 0.10 85 1007.2
20260505053135 63 314 6.1 7.8 0.31 0.05 0.05 88 1007.0
20260505052632 65 235 8.7 11.3 0.00 0.00 0.00 78 1007.7
20260505052130 66 189 9.6 13.0 0.00 0.00 0.00 74 1004.7
20260505051626 65 190 9.6 12.2 0.00 0.00 0.00 75 1004.2
20260505051125 66 196 9.6 11.3 0.00 0.00 0.00 74 1004.1
20260505050622 66 188 9.6 13.9 0.00 0.00 0.00 73 1004.1
20260505050120 65 157 7.0 7.8 0.00 0.00 0.00 75 1003.8
20260505041550 66 155 5.2 7.8 0.00 0.23 0.23 73 1004.2
20260505041047 66 199 7.0 11.3 0.00 0.23 0.23 74 1004.1
20260505040544 66 176 4.3 6.1 0.00 0.23 0.23 73 1003.9
20260505040041 66 181 7.0 12.2 0.00 0.23 0.23 73 1004.0
20260505035537 66 94 6.1 9.6 0.00 0.23 0.23 73 1003.9
20260505035034 66 152 4.3 6.1 0.00 0.23 0.23 73 1003.7
20260505034530 66 156 6.1 8.7 0.00 0.23 0.23 73 1003.8
20260505034028 66 169 7.0 12.2 0.00 0.23 0.23 74 1004.0
20260505033525 66 199 4.3 6.1 0.00 0.23 0.23 74 1003.8
20260505033023 66 187 4.3 5.2 0.00 0.23 0.23 75 1004.1
20260505032520 66 231 7.0 11.3 0.00 0.23 0.23 74 1004.0
20260505032017 65 195 7.0 9.6 0.00 0.23 0.23 75 1004.2
20260505031514 66 211 7.8 9.6 0.00 0.23 0.23 76 1004.2
20260505031010 66 187 5.2 8.7 0.00 0.23 0.23 74 1004.0
20260505030507 66 177 7.8 12.2 0.00 0.23 0.23 73 1004.0
20260505030003 66 122 5.2 7.0 0.00 0.23 0.23 73 1004.1
20260505025459 66 156 6.1 7.0 0.00 0.23 0.23 74 1004.0
20260505024958 67 159 4.3 5.2 0.00 0.23 0.23 73 1003.8
20260505024454 67 171 5.2 7.0 0.00 0.23 0.23 73 1003.8
20260505023952 67 192 7.0 9.6 0.00 0.23 0.23 72 1003.8
20260505023449 67 171 7.8 11.3 0.00 0.23 0.23 71 1003.8
20260505022946 67 162 4.3 6.1 0.00 0.23 0.23 71 1003.8
20260505022444 67 154 7.0 8.7 0.00 0.23 0.23 71 1003.7
20260505021941 67 139 7.8 9.6 0.00 0.23 0.23 72 1003.8
20260505021437 67 176 6.1 7.8 0.00 0.23 0.23 73 1003.6
20260505020933 67 194 3.5 6.1 0.00 0.23 0.23 73 1003.4
20260505020428 67 164 4.3 6.1 0.00 0.23 0.23 72 1003.4
20260505015925 67 159 5.2 6.1 0.00 0.23 0.23 73 1003.3
20260505015423 66 170 3.5 3.5 0.00 0.23 0.23 74 1003.4
20260505014920 66 169 4.3 7.0 0.00 0.23 0.23 75 1003.3
20260505014416 66 173 4.3 5.2 0.00 0.23 0.23 75 1003.5
20260505013914 66 117 3.5 3.5 0.00 0.23 0.23 75 1003.3
20260505013410 66 175 3.5 5.2 0.00 0.23 0.23 75 1003.2
20260505012909 66 184 3.5 5.2 0.00 0.23 0.23 74 1003.4
20260505012406 66 154 4.3 6.1 0.00 0.23 0.23 75 1003.2
20260505011902 67 153 5.2 6.1 0.00 0.23 0.23 74 1003.3
20260505011359 67 152 5.2 6.1 0.00 0.23 0.23 74 1003.1
20260505010855 66 176 7.0 9.6 0.00 0.23 0.23 73 1003.0
20260505010351 67 146 5.2 7.0 0.00 0.23 0.23 75 1003.1
20260505005847 67 175 5.2 7.0 0.00 0.23 0.23 73 1003.3
20260505005344 67 160 5.2 7.0 0.00 0.23 0.23 72 1003.3
20260505004842 67 196 7.0 9.6 0.00 0.23 0.23 73 1003.3
20260505004338 67 148 5.2 7.0 0.00 0.23 0.23 72 1003.1
20260505003836 67 134 7.0 11.3 0.00 0.23 0.23 71 1003.2
20260505003333 67 182 6.1 7.0 0.00 0.23 0.23 71 1003.1
20260505002828 67 150 6.1 8.7 0.00 0.23 0.23 72 1003.2
20260505002326 67 184 6.1 7.8 0.00 0.23 0.23 71 1003.2
20260505001824 66 154 5.2 7.8 0.00 0.23 0.23 72 1003.3
20260505001320 67 169 4.3 5.2 0.00 0.23 0.23 73 1003.2
20260505000818 68 162 7.0 8.7 0.00 0.23 0.23 71 1003.2
20260505000316 70 191 10.4 14.8 0.00 0.23 0.23 67 1003.6
20260504235812 70 175 7.0 8.7 0.00 0.23 0.23 64 1003.4
20260504235309 71 159 7.0 11.3 0.00 0.23 0.23 65 1003.8
20260504234806 71 177 5.2 6.1 0.00 0.23 0.23 66 1003.4
20260504234304 71 141 3.5 5.2 0.00 0.23 0.23 66 1003.5
20260504233800 72 173 6.1 7.8 0.00 0.23 0.23 65 1003.5
20260504233255 72 153 2.6 2.6 0.00 0.23 0.23 64 1003.6
20260504232752 73 168 5.2 8.7 0.00 0.23 0.23 62 1003.5
20260504232249 73 125 3.5 3.5 0.00 0.23 0.23 65 1003.6
20260504231746 73 168 3.5 3.5 0.00 0.23 0.23 64 1003.6
20260504231243 73 157 7.8 13.0 0.00 0.23 0.23 63 1003.8
20260504230739 72 205 6.1 7.0 0.00 0.23 0.23 64 1003.7
20260504230237 71 235 5.2 7.0 0.00 0.23 0.23 65 1004.0
20260504225736 71 180 4.3 7.0 0.00 0.23 0.23 65 1004.1
20260504225231 71 169 5.2 7.0 0.00 0.23 0.23 64 1003.9
20260504224729 71 171 5.2 7.8 0.00 0.23 0.23 63 1004.2
20260504224226 71 177 7.8 7.8 0.00 0.23 0.23 63 1004.2
20260504223722 72 175 9.6 12.2 0.00 0.23 0.23 64 1004.3
20260504223217 72 190 9.6 13.9 0.00 0.23 0.23 62 1004.3
20260504222714 73 195 6.1 8.7 0.00 0.23 0.23 64 1004.3
20260504222211 73 171 7.0 7.8 0.00 0.23 0.23 63 1004.4
20260504221709 73 161 7.8 9.6 0.00 0.23 0.23 60 1004.3
20260504221206 74 197 4.3 6.1 0.00 0.23 0.23 61 1004.4
20260504220702 74 144 6.1 8.7 0.00 0.23 0.23 59 1004.5
20260504220200 74 188 6.1 7.8 0.00 0.23 0.23 60 1004.5
20260504215656 74 174 6.1 7.0 0.00 0.23 0.23 61 1004.5
20260504215154 74 201 6.1 7.8 0.00 0.23 0.23 61 1004.3
20260504214649 74 184 10.4 13.9 0.00 0.23 0.23 60 1004.5
20260504214146 73 160 11.3 16.5 0.00 0.23 0.23 59 1004.6
20260504213642 73 193 9.6 11.3 0.00 0.23 0.23 60 1004.6
20260504213139 74 167 13.0 15.6 0.00 0.23 0.23 59 1004.6
20260504212635 74 189 13.9 18.2 0.00 0.23 0.23 62 1004.6
20260504212132 73 173 9.6 13.0 0.00 0.23 0.23 61 1004.7
20260504211630 74 160 8.7 11.3 0.00 0.23 0.23 61 1004.9
20260504211126 74 178 10.4 12.2 0.00 0.23 0.23 61 1004.9
20260504210624 73 202 7.8 11.3 0.00 0.23 0.23 59 1004.9
20260504210120 74 157 5.2 7.0 0.00 0.23 0.23 61 1005.0
20260504205618 74 174 9.6 14.8 0.00 0.23 0.23 59 1005.0
20260504205116 73 197 6.1 7.8 0.00 0.23 0.23 60 1005.1
20260504204614 73 159 7.8 11.3 0.00 0.23 0.23 63 1005.1
20260504204112 73 184 10.4 13.9 0.00 0.23 0.23 61 1005.1
20260504203611 74 153 10.4 13.9 0.00 0.23 0.23 60 1005.2
20260504203108 74 129 8.7 14.8 0.00 0.23 0.23 63 1005.3
20260504202603 74 215 8.7 12.2 0.00 0.23 0.23 61 1005.3
20260504202100 73 241 8.7 11.3 0.00 0.23 0.23 62 1005.4
20260504201556 73 144 7.0 12.2 0.00 0.23 0.23 64 1005.4
20260504201055 73 153 13.0 16.5 0.00 0.23 0.23 61 1005.2
20260504200550 73 173 7.8 9.6 0.00 0.23 0.23 63 1005.5
20260504200048 72 182 9.6 12.2 0.00 0.23 0.23 63 1005.3
20260504195544 72 162 7.8 9.6 0.00 0.23 0.23 64 1005.2
20260504195040 72 208 5.2 6.1 0.00 0.23 0.23 66 1005.3
20260504194537 71 112 10.4 13.9 0.00 0.23 0.23 63 1005.5
20260504194032 72 168 11.3 13.0 0.00 0.23 0.23 63 1005.9
20260504193529 71 172 10.4 15.6 0.00 0.23 0.23 66 1005.7
20260504193028 71 182 11.3 13.9 0.00 0.23 0.23 66 1006.1
20260504192526 70 209 7.0 11.3 0.00 0.23 0.23 66 1006.1
20260504192024 71 179 10.4 14.8 0.00 0.23 0.23 68 1005.9
20260504191521 70 182 8.7 12.2 0.00 0.23 0.23 67 1006.2
20260504191017 71 210 11.3 19.1 0.00 0.23 0.23 67 1006.1
20260504190514 71 225 13.0 15.6 0.00 0.23 0.23 64 1006.0
20260504190010 71 182 10.4 13.0 0.00 0.23 0.23 65 1006.0
20260504185507 69 215 11.3 15.6 0.00 0.23 0.23 67 1006.1
20260504185003 69 177 12.2 15.6 0.00 0.23 0.23 69 1006.3
20260504184459 69 225 11.3 14.8 0.00 0.23 0.23 71 1006.6
20260504183954 68 203 12.2 15.6 0.00 0.23 0.23 71 1006.7
20260504183452 67 231 7.0 9.6 0.00 0.23 0.23 69 1006.6
20260504182950 67 239 5.2 7.0 0.00 0.23 0.23 74 1006.6
20260504182446 67 181 5.2 7.0 0.00 0.23 0.23 72 1006.5
20260504181944 68 198 6.1 8.7 0.00 0.23 0.23 72 1006.3
20260504181440 67 208 7.8 9.6 0.00 0.23 0.23 69 1006.5
20260504180939 68 166 9.6 13.0 0.00 0.23 0.23 71 1006.6
20260504180438 68 198 8.7 11.3 0.00 0.23 0.23 69 1006.3
20260504175936 68 193 10.4 13.0 0.00 0.23 0.23 68 1006.0
20260504175432 69 184 7.0 7.8 0.00 0.23 0.23 69 1005.8
20260504174930 69 198 9.6 13.9 0.00 0.23 0.23 65 1006.2
20260504174428 71 187 12.2 16.5 0.00 0.23 0.23 64 1006.7
20260504173925 73 218 16.5 20.0 0.00 0.23 0.23 58 1006.4
20260504173421 73 195 7.0 8.7 0.00 0.23 0.23 60 1006.4
20260504172919 72 204 8.7 11.3 0.00 0.23 0.23 61 1006.4
20260504172414 72 221 9.6 12.2 0.00 0.23 0.23 59 1006.8
20260504171911 71 229 9.6 12.2 0.00 0.23 0.23 64 1006.9
20260504171408 71 208 8.7 11.3 0.00 0.23 0.23 63 1006.9
20260504170905 71 235 9.6 15.6 0.00 0.23 0.23 65 1006.8
20260504170401 71 188 9.6 12.2 0.00 0.23 0.23 63 1006.7